FW7738 Weather Reports


time (UTC)temp
F
wind
direction
speed
knots
gust
knots
rain 1hr
in
rain 24hr
in
rain mn
in
humidity
%
barometer
mb
20260901175024 80 137 2.6 6.1 0.00 0.00 0.00 80 1015.9
20260901174039 80 102 2.6 6.1 0.00 0.00 0.00 79 1015.8
20260901173034 80 113 4.3 7.0 0.00 0.00 0.00 78 1015.9
20260901172030 80 115 3.5 7.8 0.00 0.00 0.00 77 1015.9
20260901171045 80 130 3.5 6.1 0.00 0.00 0.00 75 1015.9
20260901170021 81 117 6.1 7.8 0.00 0.00 0.00 74 1015.9
20260901165016 81 103 3.5 6.1 0.00 0.00 0.00 72 1015.9
20260901164031 81 111 3.5 7.8 0.00 0.00 0.00 73 1016.1
20260901163046 82 110 2.6 6.1 0.00 0.00 0.00 70 1015.9
20260901162022 81 112 4.3 8.7 0.00 0.00 0.00 71 1016.1
20260901161017 81 87 1.7 6.1 0.00 0.00 0.00 74 1016.1
20260901160113 81 128 2.6 7.0 0.00 0.00 0.00 73 1016.3
20260901155028 81 97 1.7 5.2 0.00 0.00 0.00 76 1016.2
20260901154044 80 80 1.7 6.1 0.00 0.00 0.00 75 1016.2
20260901153018 80 91 2.6 5.2 0.00 0.00 0.00 76 1016.5
20260901152034 80 84 2.6 5.2 0.00 0.00 0.00 76 1016.8
20260901151030 80 124 0.9 2.6 0.00 0.00 0.00 73 1017.1
20260901150024 81 261 1.7 6.1 0.00 0.00 0.00 74 1017.4
20260901145020 81 114 6.1 11.3 0.00 0.00 0.00 72 1016.2
20260901144015 82 110 6.1 11.3 0.00 0.00 0.00 68 1016.4
20260901143031 82 98 2.6 7.0 0.00 0.00 0.00 67 1016.5
20260901142026 83 135 3.5 8.7 0.00 0.00 0.00 65 1016.9
20260901141021 83 101 1.7 3.5 0.00 0.00 0.00 63 1017.4
20260901140038 83 104 3.5 7.0 0.00 0.00 0.00 65 1017.2
20260901135032 83 208 1.7 3.5 0.00 0.00 0.00 65 1017.9
20260901134047 83 122 2.6 7.8 0.00 0.00 0.00 68 1017.7
20260901133022 83 137 3.5 6.1 0.00 0.00 0.00 69 1018.0
20260901132017 82 139 3.5 6.1 0.00 0.00 0.00 70 1017.9
20260901131032 82 153 1.7 5.2 0.00 0.00 0.00 72 1017.8
20260901130028 82 123 3.5 7.0 0.00 0.00 0.00 73 1017.7
20260901125023 82 142 5.2 8.7 0.00 0.00 0.00 73 1017.9
20260901124018 82 162 5.2 9.6 0.00 0.00 0.00 72 1017.9
20260901123034 82 128 7.0 13.0 0.00 0.00 0.00 73 1017.8
20260901122049 81 119 9.6 13.9 0.00 0.00 0.00 74 1016.9
20260901121044 82 117 7.0 13.0 0.00 0.00 0.00 73 1017.2
20260901120019 82 129 7.0 9.6 0.00 0.00 0.00 72 1017.8
20260901115035 82 121 5.2 7.8 0.00 0.00 0.00 68 1018.0
20260901114030 83 111 4.3 8.7 0.00 0.00 0.00 68 1018.0
20260901113025 83 107 5.2 8.7 0.00 0.00 0.00 69 1018.1
20260901112020 82 127 5.2 7.8 0.00 0.00 0.00 70 1018.4
20260901111015 81 120 5.2 7.8 0.00 0.00 0.00 73 1018.6
20260901110031 81 130 5.2 7.8 0.00 0.00 0.00 73 1018.6
20260901105026 82 105 3.5 8.7 0.00 0.00 0.00 72 1018.7
20260901104101 82 131 4.3 11.3 0.00 0.00 0.00 71 1018.2
20260901103017 82 132 5.2 12.2 0.00 0.00 0.00 70 1018.5
20260901102032 81 117 4.3 8.7 0.00 0.00 0.00 73 1018.8
20260901101047 82 122 4.3 8.7 0.00 0.00 0.00 73 1018.8
20260901100043 81 119 3.5 7.8 0.00 0.00 0.00 73 1018.8
20260901095018 81 136 3.5 7.0 0.00 0.00 0.00 74 1018.9
20260901094034 80 143 3.5 7.8 0.00 0.00 0.00 74 1018.8
20260901093049 80 126 4.3 8.7 0.00 0.00 0.00 74 1019.0
20260901092045 80 108 4.3 8.7 0.00 0.00 0.00 75 1018.7
20260901091020 80 95 3.5 7.8 0.00 0.00 0.00 77 1018.6
20260901090035 80 96 3.5 7.8 0.00 0.00 0.00 76 1018.7
20260901085030 80 135 2.6 6.1 0.00 0.00 0.00 76 1018.9
20260901084026 80 93 4.3 7.8 0.00 0.00 0.00 76 1018.4
20260901083021 80 93 2.6 7.8 0.00 0.00 0.00 77 1018.5
20260901082036 80 98 3.5 7.8 0.00 0.00 0.00 76 1018.3
20260901081032 79 87 1.7 7.0 0.00 0.00 0.00 77 1018.2
20260901080026 79 87 2.6 6.1 0.00 0.00 0.00 76 1018.2
20260901075022 79 92 2.6 5.2 0.00 0.00 0.00 75 1018.2
20260901074017 79 89 2.6 7.8 0.00 0.00 0.00 75 1018.2
20260901073033 78 74 1.7 3.5 0.00 0.00 0.00 75 1018.0
20260901072028 78 69 0.0 2.6 0.00 0.00 0.00 76 1017.9
20260901071023 78 42 0.0 1.7 0.00 0.00 0.00 77 1017.7
20260901070058 77 0.0 0.0 0.00 0.00 0.00 77 1017.8
20260901065034 77 32 0.0 0.9 0.00 0.00 0.00 78 1017.7
20260901064029 77 30 0.9 2.6 0.00 0.00 0.00 78 1017.3
20260901063025 77 40 0.9 1.7 0.00 0.00 0.00 79 1017.2
20260901062020 76 345 0.9 1.7 0.00 0.00 0.00 80 1017.4
20260901061015 76 7 1.7 2.6 0.00 0.00 0.00 80 1017.2
20260901060031 76 341 0.9 2.6 0.00 0.00 0.00 81 1017.2
20260901055026 75 3 0.9 2.6 0.00 0.00 0.00 81 1016.9
20260901054022 75 29 0.9 2.6 0.00 0.00 0.00 81 1016.6
20260901053017 75 1 1.7 2.6 0.00 0.00 0.00 81 1016.9
20260901052032 76 16 2.6 5.2 0.00 0.00 0.00 81 1016.8
20260901051028 76 345 0.9 2.6 0.00 0.00 0.00 81 1016.9
20260901050023 76 18 1.7 2.6 0.00 0.00 0.00 81 1016.6
20260901045018 76 4 1.7 3.5 0.00 0.00 0.00 80 1016.9
20260901044034 76 23 0.9 1.7 0.00 0.00 0.00 80 1016.8
20260901043028 76 2 0.9 1.7 0.00 0.00 0.00 81 1017.1
20260901042023 76 346 0.9 2.6 0.00 0.00 0.00 82 1017.3
20260901041039 75 328 1.7 3.5 0.00 0.00 0.00 82 1016.9
20260901040035 75 347 0.9 2.6 0.00 0.00 0.00 83 1016.8
20260901035030 75 346 1.7 2.6 0.00 0.00 0.00 83 1017.0
20260901034045 75 12 0.9 0.9 0.00 0.00 0.00 83 1017.0
20260901033021 75 7 0.9 1.7 0.00 0.00 0.00 83 1017.1
20260901032016 75 10 1.7 2.6 0.00 0.00 0.00 83 1017.1
20260901031031 75 5 1.7 2.6 0.00 0.00 0.00 83 1017.2
20260901030026 75 358 1.7 2.6 0.00 0.00 0.00 84 1017.1
20260901025022 75 13 0.9 1.7 0.00 0.00 0.00 84 1017.0
20260901024017 75 6 1.7 2.6 0.00 0.00 0.00 84 1017.3
20260901023033 75 354 1.7 2.6 0.00 0.00 0.00 85 1017.2
20260901022028 75 4 1.7 1.7 0.00 0.00 0.00 85 1017.5
20260901021023 76 11 1.7 2.6 0.00 0.00 0.00 85 1017.4
20260901020019 76 12 0.9 2.6 0.00 0.00 0.00 84 1017.5
20260901015055 76 22 0.9 3.5 0.00 0.00 0.00 84 1017.6
20260901014030 76 13 1.7 3.5 0.00 0.00 0.00 84 1017.5
20260901013045 76 10 0.9 1.7 0.00 0.00 0.00 84 1017.6
20260901012021 76 14 0.9 1.7 0.00 0.00 0.00 84 1017.8
20260901011016 76 0 0.9 1.7 0.00 0.00 0.00 83 1017.9
20260901010032 76 359 0.9 1.7 0.00 0.00 0.00 84 1017.9
20260901005107 76 7 0.9 1.7 0.00 0.00 0.00 84 1018.0
20260901004023 76 3 1.7 3.5 0.00 0.00 0.00 83 1018.0
20260901003018 77 2 0.9 1.7 0.00 0.00 0.00 83 1018.1
20260901002033 77 8 0.9 1.7 0.00 0.00 0.00 83 1018.2
20260901001029 77 351 0.9 1.7 0.00 0.00 0.00 83 1018.2
20260901000024 77 336 0.0 0.9 0.00 0.00 0.00 83 1018.1
20260831235019 77 39 0.0 1.7 0.00 0.00 0.00 83 1018.3
20260831234035 77 25 2.6 5.2 0.00 0.00 0.00 82 1018.3
20260831233029 77 25 2.6 5.2 0.00 0.00 0.00 82 1018.4
20260831232025 77 36 2.6 5.2 0.00 0.00 0.00 82 1018.2
20260831231020 77 29 0.0 0.9 0.00 0.00 0.00 83 1018.2
20260831230016 77 127 0.0 0.9 0.00 0.00 0.00 83 1018.2
20260831225031 77 18 0.9 3.5 0.00 0.00 0.00 83 1018.2
20260831224047 77 9 1.7 5.2 0.00 0.00 0.00 84 1018.1
20260831223022 77 20 2.6 5.2 0.00 0.00 0.00 84 1018.1
20260831222017 77 19 2.6 5.2 0.00 0.00 0.00 84 1018.0
20260831221052 77 22 2.6 3.5 0.00 0.00 0.00 84 1018.0
20260831220028 77 25 0.9 1.7 0.00 0.00 0.00 83 1018.0
20260831215023 77 23 0.9 2.6 0.00 0.00 0.00 83 1017.8
20260831214038 77 29 0.9 2.6 0.00 0.00 0.00 83 1017.8
20260831213034 77 30 0.9 2.6 0.00 0.00 0.00 83 1017.8
20260831212028 77 24 1.7 3.5 0.00 0.00 0.00 83 1017.8
20260831211024 77 48 0.0 1.7 0.00 0.00 0.00 84 1017.7
20260831210019 77 49 1.7 3.5 0.00 0.00 0.00 84 1017.5
20260831205055 77 54 0.9 1.7 0.00 0.00 0.00 84 1017.5
20260831204030 77 55 0.9 2.6 0.00 0.00 0.00 84 1017.4
20260831203045 77 54 0.9 3.5 0.00 0.00 0.00 84 1017.4
20260831202020 77 65 0.9 2.6 0.00 0.00 0.00 84 1017.2
20260831201016 76 69 0.0 1.7 0.00 0.00 0.00 84 1017.1
20260831200032 76 85 0.9 2.6 0.00 0.00 0.00 84 1017.0
20260831195026 76 78 0.9 2.6 0.00 0.00 0.00 84 1016.8
20260831194022 76 55 0.9 2.6 0.00 0.00 0.00 85 1016.6
20260831193017 76 65 0.9 2.6 0.00 0.00 0.00 84 1016.3
20260831192033 77 67 0.9 3.5 0.00 0.00 0.00 84 1016.3
20260831191028 77 66 0.0 3.5 0.00 0.00 0.00 83 1016.1
20260831190023 77 63 0.9 3.5 0.00 0.00 0.00 81 1016.1
20260831185038 77 68 1.7 6.1 0.00 0.00 0.00 81 1016.0
20260831184034 78 88 1.7 7.0 0.00 0.00 0.00 80 1015.9
20260831183029 78 82 1.7 5.2 0.00 0.00 0.00 79 1015.8
20260831182024 78 76 2.6 7.0 0.00 0.00 0.00 78 1015.9
20260831181019 78 92 2.6 7.0 0.00 0.00 0.00 78 1015.7
20260831180035 78 74 1.7 6.1 0.00 0.00 0.00 78 1015.7